Change the Weather History Date:

Sunday, June 30, 2013

  Actual Average Record
Temperature  
Mean Temperature 71 °F 75 °F  
Max Temperature 76 °F 85 °F 97 °F (1933)
Min Temperature 65 °F 65 °F 46 °F (1943)
Degree Days  
Heating Degree Days 0 0  
Month to date heating degree days 9 13  
Since 1 June heating degree days 9 16  
Since 1 July heating degree days 5405 5378  
Cooling Degree Days 6 10  
Month to date cooling degree days 226 226  
Year to date cooling degree days 355 310  
Since 1 June cooling degree days 226 226  
Growing Degree Days 20 (Base 50)    
Moisture  
Dew Point 62 °F    
Average Humidity 79    
Maximum Humidity 93    
Minimum Humidity 64    
Precipitation  
Precipitation 0.08 in 0.14 in 1.50 in (1945)
Month to date precipitation 3.66 4.25  
Year to date precipitation 25.49 21.65  
Snow  
Snow 0.00 in 0.00 in 0.00 in ()
Month to date snowfall 0.0 0.0  
Since 1 June snowfall 0.0 0.0  
Since 1 July snowfall 34.5 25.9  
Snow Depth 0.00 in    
Sea Level Pressure  
Sea Level Pressure 29.75 in    
Wind  
Wind Speed 9 mph (NNE)    
Max Wind Speed 20 mph    
Max Gust Speed 26 mph    
Visibility 10 miles    
Events Rain , Thunderstorm    
T = Trace of Precipitation, MM = Missing Value Source: NWS Daily Summary

Daily Weather History Graph

Daily Weather History Graph

Search for Another Location

Airport or City:

Trip Planner

Search our weather history database for the weather conditions in past years. The results will help you decide how hot, cold, wet, or windy it might be!

Date:

Astronomy

Jun. 30, 2013 Rise Set
Actual Time 6:20 AM EDT 9:17 PM EDT
Civil Twilight 5:48 AM EDT 9:49 PM EDT
Nautical Twilight 5:07 AM EDT 10:30 PM EDT
Astronomical Twilight 4:19 AM EDT 11:18 PM EDT
Moon 1:18 AM EDT (6/30) 2:32 PM EDT (6/30)
Length of Visible Light 16h 01m
Length of Day
14h 56m
Last Quarter, 45% of the Moon is Illuminated
Jun 30
Last Quarter
Jul 8
New
Jul 15
First Quarter
Jul 22
Full
Jul 29
Last Quarter

Hourly Weather History & Observations

Time (EDT) Temp. Dew Point Humidity Pressure Visibility Wind Dir Wind Speed Gust Speed Precip Events Conditions
12:54 AM 66.9 °F 61.0 °F 81% 29.67 in 10.0 mi NNE 5.8 mph - N/A   Overcast
1:54 AM 66.0 °F 61.0 °F 84% 29.68 in 10.0 mi North 5.8 mph - N/A   Mostly Cloudy
2:54 AM 66.0 °F 62.1 °F 87% 29.67 in 10.0 mi North 6.9 mph - N/A   Mostly Cloudy
3:36 AM 64.4 °F 62.6 °F 94% 29.68 in 10.0 mi Calm Calm - 0.00 in Rain Light Rain
3:46 AM 64.4 °F 62.6 °F 94% 29.68 in 10.0 mi North 3.5 mph - 0.00 in Rain Light Rain
3:54 AM 64.9 °F 63.0 °F 93% 29.67 in 10.0 mi Calm Calm - 0.00 in   Overcast
4:27 AM 64.4 °F 62.6 °F 94% 29.68 in 10.0 mi North 3.5 mph - 0.00 in   Mostly Cloudy
4:54 AM 64.9 °F 62.1 °F 90% 29.67 in 10.0 mi NNE 6.9 mph - 0.00 in   Mostly Cloudy
5:08 AM 64.4 °F 62.6 °F 94% 29.69 in 10.0 mi North 6.9 mph - N/A   Overcast
5:54 AM 66.0 °F 63.0 °F 90% 29.69 in 10.0 mi NNE 6.9 mph - N/A   Overcast
6:36 AM 66.2 °F 62.6 °F 88% 29.71 in 10.0 mi North 6.9 mph - N/A   Overcast
6:54 AM 66.0 °F 63.0 °F 90% 29.70 in 10.0 mi North 8.1 mph - N/A   Overcast
7:14 AM 66.2 °F 62.6 °F 88% 29.72 in 10.0 mi NNE 8.1 mph - N/A   Overcast
7:35 AM 66.2 °F 62.6 °F 88% 29.73 in 8.0 mi NNE 6.9 mph - N/A   Overcast
7:54 AM 66.9 °F 63.0 °F 87% 29.72 in 8.0 mi NNE 5.8 mph - N/A   Overcast
8:15 AM 66.2 °F 62.6 °F 88% 29.74 in 8.0 mi North 4.6 mph - N/A   Overcast
8:19 AM 66.2 °F 62.6 °F 88% 29.74 in 8.0 mi North 5.8 mph - N/A   Overcast
8:35 AM 66.2 °F 62.6 °F 88% 29.74 in 9.0 mi NNE 4.6 mph - N/A   Overcast
8:54 AM 66.9 °F 63.0 °F 87% 29.73 in 9.0 mi NE 3.5 mph - N/A   Overcast
9:39 AM 69.8 °F 62.6 °F 78% 29.76 in 10.0 mi NNE 4.6 mph - N/A   Overcast
9:54 AM 69.1 °F 62.1 °F 78% 29.75 in 10.0 mi NNE 3.5 mph - N/A   Overcast
10:54 AM 71.1 °F 61.0 °F 70% 29.75 in 10.0 mi NNE 9.2 mph - N/A   Overcast
11:47 AM 71.6 °F 60.8 °F 69% 29.78 in 10.0 mi NNE 11.5 mph - N/A   Mostly Cloudy
11:54 AM 71.1 °F 61.0 °F 70% 29.77 in 10.0 mi NE 10.4 mph - N/A   Overcast
12:54 PM 73.0 °F 60.1 °F 64% 29.76 in 10.0 mi NNE 13.8 mph - N/A   Mostly Cloudy
1:54 PM 73.9 °F 62.1 °F 66% 29.76 in 10.0 mi North 13.8 mph - N/A   Mostly Cloudy
3:54 PM 70.0 °F 62.1 °F 76% 29.78 in 5.0 mi North 15.0 mph - 0.00 in Rain Light Rain
4:54 PM 71.1 °F 64.0 °F 78% 29.78 in 10.0 mi North 10.4 mph - 0.00 in   Overcast
5:18 PM 71.6 °F 60.8 °F 69% 29.80 in 10.0 mi NE 13.8 mph - N/A   Mostly Cloudy
5:54 PM 72.0 °F 62.1 °F 71% 29.79 in 10.0 mi NE 9.2 mph - 0.00 in   Overcast
6:19 PM 73.4 °F 62.6 °F 69% 29.80 in 10.0 mi ENE 12.7 mph - N/A   Overcast
6:54 PM 71.1 °F 63.0 °F 75% 29.80 in 6.0 mi NE 11.5 mph - 0.00 in Rain Rain
7:39 PM 71.6 °F 64.4 °F 78% 29.82 in 10.0 mi NE 6.9 mph - 0.07 in   Overcast
7:54 PM 71.1 °F 62.1 °F 73% 29.81 in 10.0 mi NE 10.4 mph - 0.07 in   Overcast
8:54 PM 71.1 °F 62.1 °F 73% 29.82 in 10.0 mi NNE 11.5 mph - N/A Thunderstorm Thunderstorm
9:14 PM 66.2 °F 62.6 °F 88% 29.84 in 10.0 mi NNE 17.3 mph 26.5 mph N/A Thunderstorm Thunderstorm
9:54 PM 66.9 °F 63.0 °F 87% 29.84 in 10.0 mi North 9.2 mph - 0.00 in Thunderstorm Thunderstorm
10:09 PM 66.2 °F 62.6 °F 88% 29.85 in 10.0 mi North 6.9 mph - 0.00 in Rain Light Rain
10:54 PM 66.9 °F 63.0 °F 87% 29.86 in 10.0 mi NNE 8.1 mph - 0.01 in Rain Light Rain
11:54 PM 66.9 °F 62.1 °F 84% 29.86 in 10.0 mi NNE 9.2 mph - 0.00 in   Overcast